GW2721 Weather Reports


time (UTC)temp
C
wind
direction
speed
KPH
gust
KPH
rain 1hr
cm
rain 24hr
cm
rain mn
cm
humidity
%
barometer
mb
20260507130053 12 351 0.0 0.0 0.00 0.69 0.15 70 1011.2
20260507123157 12 360 0.0 0.0 0.00 0.69 0.15 77 1011.3
20260507121518 12 299 0.0 0.0 0.00 0.69 0.15 82 1011.2
20260507120018 12 24 0.0 0.0 0.00 0.69 0.15 83 1011.1
20260507114540 12 33 0.0 0.0 0.00 0.69 0.15 85 1011.0
20260507111532 12 323 0.0 0.0 0.00 0.69 0.15 86 1010.8
20260507110057 12 323 0.0 0.0 0.00 0.69 0.15 86 1010.8
20260507104547 12 323 0.0 0.0 0.00 0.69 0.15 86 1010.6
20260507101550 12 29 0.0 0.0 0.00 0.69 0.15 86 1010.2
20260507094547 12 306 0.0 0.0 0.00 0.69 0.15 86 1010.2
20260507093055 12 306 0.0 0.0 0.00 0.69 0.15 86 1009.9
20260507091535 12 306 0.0 0.0 0.00 0.69 0.15 86 1010.0
20260507084608 12 306 0.0 0.0 0.00 0.69 0.15 86 1009.8
20260507083134 12 306 0.0 0.0 0.00 0.69 0.15 86 1009.8
20260507081519 12 306 0.0 0.0 0.00 0.69 0.15 86 1009.3
20260507074538 13 275 0.0 0.0 0.00 0.69 0.15 87 1009.1
20260507071607 13 5 0.0 0.0 0.00 0.69 0.15 88 1008.9
20260507070122 13 39 0.0 0.0 0.03 0.69 0.15 88 1008.6
20260507064641 13 267 0.0 0.0 0.03 0.69 0.15 87 1008.9
20260507063049 13 142 0.0 0.0 0.03 0.69 0.15 87 1008.7
20260507061551 13 334 0.0 0.0 0.03 0.69 0.15 86 1008.6
20260507060035 14 248 0.0 0.0 0.03 0.66 0.13 86 1008.9
20260507054527 14 193 0.0 0.0 0.05 0.66 0.13 85 1008.7
20260507053022 15 348 0.0 0.0 0.10 0.66 0.13 83 1008.9
20260507044539 16 263 0.0 0.0 0.08 0.61 0.08 77 1008.7
20260507043045 17 281 0.0 0.0 0.03 0.56 0.03 74 1008.9
20260507041545 17 338 0.0 0.0 0.00 0.53 0.00 74 1008.6
20260507034628 17 28 0.0 0.0 0.00 0.53 0.53 75 1008.1
20260507033055 18 300 0.0 0.0 0.00 0.53 0.53 76 1008.3
20260507030049 18 322 0.0 0.0 0.00 0.53 0.53 73 1007.8
20260507024533 18 281 0.0 1.6 0.00 0.53 0.53 74 1007.8
20260507023102 19 12 0.0 0.0 0.00 0.53 0.53 75 1007.6
20260507021648 19 257 0.0 0.0 0.00 0.53 0.53 74 1007.4
20260507020009 19 245 0.0 0.0 0.00 0.53 0.53 76 1007.1
20260507013008 20 156 0.0 0.0 0.00 0.53 0.53 80 1007.3
20260507011546 20 156 0.0 0.0 0.00 0.53 0.53 80 1007.2
20260507010014 20 156 0.0 0.0 0.00 0.53 0.53 79 1007.3
20260507004545 20 156 0.0 0.0 0.00 0.53 0.53 78 1007.0
20260507001556 20 156 0.0 0.0 0.00 0.53 0.53 78 1006.8
20260506234636 20 156 0.0 0.0 0.00 0.53 0.53 76 1006.8
20260506233011 20 106 0.0 0.0 0.00 0.53 0.53 76 1006.6
20260506231536 21 200 0.0 0.0 0.00 0.53 0.53 75 1006.3
20260506230112 21 148 0.0 0.0 0.00 0.53 0.53 75 1006.1
20260506224550 21 204 0.0 0.0 0.00 0.53 0.53 75 1006.4
20260506214602 21 139 0.0 0.0 0.00 0.53 0.53 72 1006.2
20260506213048 22 180 0.0 0.0 0.00 0.53 0.53 71 1006.1
20260506211508 22 117 0.0 0.0 0.00 0.53 0.53 72 1006.0
20260506210040 21 122 0.0 1.6 0.00 0.53 0.53 73 1005.6
20260506204516 21 190 0.0 0.0 0.00 0.53 0.53 74 1005.7
20260506203035 21 184 0.0 1.6 0.00 0.53 0.53 74 1005.6
20260506201608 21 157 0.0 0.0 0.00 0.53 0.53 74 1005.6
20260506200150 21 107 0.0 0.0 0.00 0.53 0.53 74 1005.8
20260506194615 21 200 0.0 0.0 0.00 0.53 0.53 73 1005.9
20260506193033 21 70 0.0 0.0 0.00 0.53 0.53 74 1006.1
20260506184544 20 196 0.0 0.0 0.00 0.53 0.53 77 1006.2
20260506183038 20 224 0.0 0.0 0.00 0.53 0.53 77 1006.5
20260506181605 20 113 0.0 0.0 0.00 0.53 0.53 77 1006.5
20260506180025 19 132 0.0 0.0 0.00 0.53 0.53 80 1006.7
20260506174601 18 186 0.0 0.0 0.00 0.53 0.53 81 1006.9
20260506171543 18 24 0.0 0.0 0.00 0.53 0.53 84 1007.0
20260506170020 17 134 0.0 0.0 0.00 0.53 0.53 86 1007.1
20260506164640 17 148 0.0 0.0 0.00 0.53 0.53 87 1006.9
20260506163056 17 192 0.0 0.0 0.00 0.53 0.53 88 1007.2
20260506161622 17 213 0.0 0.0 0.05 0.53 0.53 89 1007.2
20260506160125 17 100 0.0 0.0 0.08 0.53 0.53 89 1007.3
20260506154600 16 198 0.0 0.0 0.10 0.53 0.53 89 1007.4
20260506151507 16 138 0.0 0.0 0.20 0.48 0.48 88 1007.6
20260506150038 16 163 0.0 0.0 0.25 0.46 0.46 87 1008.1
20260506144642 16 136 0.0 0.0 0.28 0.43 0.43 87 1008.3
20260506143005 16 126 0.0 0.0 0.38 0.41 0.41 86 1008.3
20260506141511 16 138 0.0 0.0 0.28 0.28 0.28 84 1008.2
20260506140018 17 128 0.0 0.0 0.20 0.20 0.20 83 1008.2
20260506134700 17 144 0.0 0.0 0.15 0.15 0.15 82 1008.4
20260506133128 17 165 0.0 0.0 0.03 0.03 0.05 80 1008.6
20260506131528 17 191 0.0 0.0 0.00 0.00 0.00 80 1008.5